Location: Lake Arresoe
(56.0000°N, 12.5000°E)
Time: 09:54:16
(UTC+02:00)

Resurs 1-4 Rocket - Pass Details

Date: 21 August 2020
Orbit: 799 x 815 km, 98.6° (Epoch: 23 September)

Event Time Altitude Azimuth Distance (km) Brightness Sun altitude
Rises 04:22:30 0° 13° (NNE) 3,330 6.3 -11.4°
Reaches altitude 10° 04:25:03 10° 4° (N) 2,393 5.3 -11.2°
Maximum altitude 04:29:39 32° 303° (WNW) 1,363 3.2 -10.7°
Enters shadow 04:33:45 12° 245° (WSW) 2,211 3.8 -10.3°
